Location: Tierz
(42.1336°N, 0.3549°W)
Time: 15:33:10
(UTC+00:00)

Cosmos 1709 Rocket - Pass Details

Date: 29 October 2020
Orbit: 949 x 1001 km, 82.9° (Epoch: 25 November)

Event Time Altitude Azimuth Distance (km) Brightness Sun altitude
Rises 18:37:43 0° 356° (N) 3,729 7.1 -18.9°
Reaches altitude 10° 18:40:19 10° 0° (N) 2,779 6.4 -19.4°
Maximum altitude 18:46:36 57° 79° (E) 1,167 4.0 -20.5°
Drops below altitude 10° 18:52:50 10° 157° (SSE) 2,759 6.1 -21.7°
Sets 18:55:24 0° 162° (SSE) 3,701 6.8 -22.2°
